Simultaneous Nadir Overpasses (SNOs) Predictions

Prediction of SNOs between GOES-17 and NOAA-19 Satellite Orbit:

Table of predicted SNOs for the next 14.0 days since TLE Epoch: 6/27/2025
Index Date Time (GOES-17) GOES-17 Lat,Lon NOAA-19 Lat,Lon Distance(km) Time Diff (sec)
1 06/28/2025 04:14:47 0.02, -96.69 0.20, -95.93 87.14 80
2 06/29/2025 04:02:07 0.02, -96.16 0.79, -92.84 379.19 80
3 07/01/2025 16:17:56 -0.03, -94.82 0.49, -97.21 272.29 80
4 07/02/2025 16:07:55 -0.03, -94.28 -0.04, -94.10 20.40 80
5 07/03/2025 15:55:15 -0.03, -93.75 -0.63, -91.00 312.69 80
6 07/06/2025 04:11:03 0.02, -92.39 -0.66, -95.37 339.82 80
7 07/07/2025 03:58:23 0.03, -91.86 -0.06, -92.28 47.16 80
8 07/08/2025 03:48:22 0.03, -91.33 0.55, -89.19 245.41 80
9 07/10/2025 16:04:11 -0.03, -90.00 0.82, -93.54 405.32 80
10 07/11/2025 15:51:31 -0.03, -89.47 0.21, -90.45 112.68 80
